Temperature
19 20 20 21 21 20 20 19 20 20 20 20 19 19 19 21 21 21 21 22 22 22 22 22 22 22 22 22 22 21 21 21 21 20 20 20 19 19 19 19 18 18 18 18
19 20 20 20 21 20 21 20 20 20 19 19 19 19 19 20 20 20 21 21 22 22 22 22 22 22 22 22 21 21 21 21 20 20 20 20 20 19 19 19 18 18 18 18
18 18 20 20 20 20 19 19 19 20 19 18 18 18 18 19 19 20 21 21 21 22 22 22 22 22 22 22 21 21 21 20 20 20 20 19 19 19 19 18 18 18 18 18
15 18 19 19 19 19 19 18 18 18 18 17 17 18 19 20 20 20 21 21 21 21 22 22 22 22 21 21 21 21 20 20 20 20 19 19 19 19 18 18 18 18 18 17
14 16 18 19 19 19 18 18 17 17 17 17 18 18 18 19 19 20 20 21 21 21 21 21 21 21 21 20 20 20 20 20 20 19 19 19 19 19 18 18 18 18 17 17
14 17 17 18 18 18 18 17 17 16 16 17 17 17 17 19 19 20 20 20 21 21 21 21 21 21 20 20 20 20 20 19 19 19 19 19 18 18 18 18 18 17 17 17
14 16 16 17 17 18 18 18 16 16 16 16 16 17 18 18 19 19 20 20 20 20 20 20 20 20 20 19 19 19 19 19 19 19 19 18 18 18 18 17 17 17 17 16
13 15 16 16 16 16 16 16 16 16 16 17 17 18 18 18 18 19 19 19 19 19 19 19 19 19 19 19 19 19 19 19 18 18 18 17 17 17 17 17 17 16 16 16
13 14 14 15 15 16 16 16 16 16 17 17 17 17 17 18 18 18 18 19 19 19 19 19 18 18 18 19 18 18 18 18 18 17 17 17 17 16 16 16 16 16 15 15
12 13 14 15 15 16 16 16 16 16 16 17 17 17 17 17 17 18 18 18 18 18 18 18 18 18 18 18 18 17 17 17 17 16 16 16 16 16 16 16 15 15 15 15
12 13 14 15 15 15 16 16 16 16 16 16 17 17 17 17 17 17 17 17 17 17 17 17 17 17 17 17 17 17 17 16 16 16 16 16 16 15 15 15 15 15 15 15
12 13 12 14 15 15 15 16 16 16 16 16 16 16 16 16 17 17 17 17 17 17 16 16 16 16 17 16 16 16 16 16 15 15 15 15 15 15 15 14 14 14 14 14
14 14 14 14 14 15 15 15 15 15 15 15 15 15 15 16 16 16 16 16 16 16 16 16 16 16 16 16 16 16 15 15 15 15 15 14 14 14 14 14 13 13 13 13
14 14 13 14 14 14 14 14 15 15 15 15 15 15 15 15 15 15 15 15 15 15 15 15 15 15 15 15 15 15 15 15 15 14 14 14 14 13 13 13 13 13 13 12
13 13 13 13 14 14 14 14 14 14 14 14 14 14 14 14 15 15 15 15 15 15 15 15 15 15 15 15 15 15 14 14 14 14 14 13 13 13 13 13 12 12 12 12
13 13 13 13 13 13 13 13 13 13 13 13 14 14 14 14 14 14 14 14 14 14 14 14 14 14 14 14 14 14 14 14 14 14 14 13 13 13 12 12 12 12 11 11
12 12 12 12 12 12 12 13 13 13 13 13 13 13 13 13 13 13 13 13 13 13 13 13 13 14 14 13 14 13 13 13 13 13 13 13 12 12 12 12 11 11 11 11
12 12 12 12 12 12 12 12 12 13 13 13 13 13 12 13 13 13 13 13 12 12 12 13 13 13 13 13 13 13 13 13 13 13 13 12 12 12 11 11 11 11 11 10
12 12 12 12 12 12 12 12 12 12 12 12 12 12 12 12 12 12 12 12 12 12 12 12 12 12 12 12 12 12 12 12 12 12 12 12 11 11 11 11 10 10 10 10
12 12 12 12 12 12 12 12 12 12 12 12 12 11 11 11 11 11 11 11 11 11 11 11 12 12 12 12 12 12 12 12 12 12 11 11 11 11 11 10 10 10 10 9
11 11 11 11 11 11 11 11 11 11 11 11 11 11 11 11 11 11 11 11 11 11 11 11 11 11 12 12 12 12 11 11 11 11 11 11 10 10 10 10 10 9 9 9
11 11 11 11 11 11 11 11 11 11 11 11 11 11 11 11 11 11 11 11 11 11 11 11 11 11 11 11 11 11 11 11 11 10 10 10 10 10 9 9 9 9 9 8
11 11 11 11 10 10 11 11 10 10 10 10 10 10 10 10 11 11 11 10 10 10 10 11 11 11 11 11 11 10 10 10 10 10 10 10 9 9 9 9 8 8 8 8
11 11 11 10 10 10 10 10 10 10 10 10 10 10 10 10 10 10 10 10 10 10 10 10 10 10 10 10 10 10 10 10 10 10 10 9 9 9 9 8 8 8 8 7
10 10 10 10 10 10 10 10 10 10 10 10 10 10 10 10 10 10 10 10 10 10 10 10 10 10 10 10 10 9 9 9 9 9 9 9 8 8 8 8 8 7 7 7
10 10 10 10 10 10 10 10 10 10 10 10 9 9 9 9 9 9 9 9 9 9 9 9 9 9 9 9 9 9 9 9 9 8 8 8 8 8 7 7 7 7 7 6
10 10 10 10 10 10 10 10 10 9 9 9 9 9 9 9 9 9 9 9 9 9 9 9 9 9 9 9 9 8 8 8 8 8 8 8 7 7 7 7 7 7 6 6
Wind_Speed
4 4 3 3 4 5 5 7 8 8 7 7 5 5 3 1 2 4 4 4 4 5 5 5 5 6 6 6 6 7 7 7 7 6 5 5 4 4 3 3 4 4 3 3
1 2 2 2 4 5 5 4 5 4 5 4 2 1 1 1 3 3 4 4 4 4 4 4 5 5 5 6 7 7 7 7 6 6 5 5 5 5 4 4 3 3 4 4
2 4 1 3 4 5 3 2 4 6 5 0 1 1 1 1 3 2 2 3 4 4 4 4 5 5 6 7 6 7 7 6 6 6 6 6 5 5 5 4 4 4 4 4
1 2 5 7 2 3 4 0 1 1 2 3 3 2 0 1 2 1 0 1 2 2 3 3 4 4 5 5 6 6 6 6 6 6 6 5 5 5 5 4 4 4 4 4
3 3 4 5 1 2 2 1 2 2 1 1 2 4 3 2 1 1 1 1 1 2 3 2 2 3 4 4 5 5 6 6 5 6 5 5 5 5 4 4 4 4 3 4
4 4 7 7 3 2 3 2 2 1 1 1 3 2 3 3 2 1 1 1 0 1 2 2 2 4 5 4 4 5 5 5 5 5 6 6 6 5 4 4 4 3 3 3
4 4 6 5 5 1 4 6 2 2 2 2 3 5 4 2 1 1 1 1 2 2 2 1 2 4 4 4 4 5 4 4 5 5 6 5 5 4 3 3 3 3 3 2
4 4 6 4 2 3 4 2 2 3 3 3 3 2 1 1 0 1 2 2 2 2 1 0 2 4 3 3 4 3 3 3 4 4 4 4 4 3 3 4 4 3 2 2
6 6 4 2 1 2 2 2 3 3 4 3 3 2 1 1 0 0 0 1 1 2 1 1 1 3 3 3 1 2 3 3 3 3 4 4 5 5 4 3 3 3 3 3
1 3 3 3 2 1 1 2 4 3 3 3 3 3 2 1 1 0 1 1 1 1 1 1 1 2 3 2 2 2 2 3 3 3 3 3 3 3 4 4 4 3 4 3
2 4 3 3 3 3 3 3 3 2 1 1 3 3 3 2 1 1 1 1 0 0 1 2 1 1 1 2 3 3 2 2 3 3 3 2 2 1 3 3 5 5 4 4
6 6 4 5 5 3 3 3 3 2 2 1 1 2 2 2 2 2 2 1 0 0 1 2 1 2 1 2 3 3 2 2 3 3 2 3 2 1 2 1 2 3 4 4
7 5 5 6 5 4 3 3 3 2 2 2 2 1 2 2 1 1 1 1 1 1 1 2 2 2 2 1 2 3 3 3 2 3 3 3 3 3 1 2 3 2 3 4
5 3 4 5 5 4 3 3 2 1 1 2 2 1 1 1 1 1 2 2 2 2 2 2 1 3 2 1 2 2 2 3 3 3 3 3 3 3 3 3 1 1 1 1
5 5 6 5 4 5 4 2 1 2 2 1 1 1 2 2 2 2 2 1 1 1 2 1 1 3 2 1 1 1 2 2 2 2 2 2 2 3 3 3 2 2 0 1
4 3 4 4 5 5 3 1 2 3 2 2 1 1 1 1 1 0 0 0 1 1 2 2 2 3 2 1 1 1 1 2 2 2 2 2 2 3 3 3 3 3 2 2
4 4 4 4 5 4 4 4 3 3 2 2 2 1 1 2 2 1 1 1 1 1 2 1 2 2 1 1 2 1 1 2 2 2 2 2 2 3 3 3 3 3 3 3
5 6 6 5 5 4 4 3 3 2 2 2 2 1 1 2 1 0 1 2 3 3 3 2 2 2 1 1 1 1 1 1 2 2 2 2 2 2 3 3 3 3 2 2
2 3 4 4 4 3 2 2 2 2 1 1 1 1 1 1 1 0 1 2 2 2 4 3 2 2 2 1 1 1 2 2 2 1 2 2 2 1 1 2 2 2 2 1
1 1 0 1 1 1 2 1 0 0 0 1 2 2 1 0 1 1 2 2 1 2 2 2 2 2 2 1 2 2 2 2 2 2 2 2 1 1 1 1 2 2 1 1
1 1 2 3 2 2 2 2 2 1 0 1 2 2 1 1 1 1 2 1 3 2 2 2 2 2 2 2 3 2 2 2 2 2 2 2 2 2 2 2 2 2 2 1
2 3 3 4 3 2 2 2 2 2 2 2 2 2 3 2 2 3 2 1 1 2 2 2 2 3 3 3 3 3 2 2 2 2 2 2 2 2 2 2 2 2 2 2
2 3 3 3 3 3 4 4 3 3 3 2 2 3 3 2 2 2 1 1 1 3 3 2 3 4 5 4 4 4 3 3 2 2 2 2 1 2 2 2 1 1 1 1
3 3 3 3 4 5 4 3 3 3 3 3 3 3 3 3 3 2 2 2 4 4 4 4 6 6 6 4 4 4 4 4 3 3 3 3 2 2 2 2 2 2 1 1
2 3 3 4 3 2 2 3 4 5 5 4 4 4 3 3 3 2 3 4 5 5 5 6 7 6 5 4 4 4 4 4 4 4 4 3 3 3 2 2 2 2 2 1
2 2 2 2 2 2 2 3 3 3 4 4 4 3 3 3 4 4 4 5 6 5 4 4 4 4 4 4 4 4 4 4 4 4 4 3 3 3 3 3 3 2 2 2
3 2 2 3 2 2 2 3 3 3 3 4 4 3 4 4 5 5 5 4 4 4 4 3 3 4 4 4 4 4 4 4 4 4 3 3 3 3 2 3 2 2 2 2
Wind_Direction
227 233 196 213 227 201 196 193 193 225 221 242 244 245 253 249 144 136 149 162 173 181 190 189 185 188 187 190 186 180 177 184 192 194 188 181 179 185 192 193 204 202 196 196
287 282 221 242 258 224 223 209 214 220 245 249 238 152 78 91 131 152 175 185 186 182 185 194 194 191 184 186 188 179 184 192 188 183 183 184 187 183 184 191 195 193 198 195
257 298 36 258 242 204 197 220 194 211 230 152 100 118 188 143 127 154 184 185 189 195 196 201 198 188 186 188 182 179 184 187 184 182 187 193 195 186 189 193 188 196 202 195
165 80 219 241 254 154 142 103 287 212 198 167 174 182 114 97 128 150 177 178 204 201 203 202 185 178 173 166 171 178 183 187 188 186 191 188 185 191 196 192 192 196 198 199
139 176 256 285 263 149 151 293 307 216 198 146 109 70 28 9 32 199 213 206 192 199 199 190 169 163 145 153 166 174 186 188 188 185 187 185 188 198 201 192 194 196 195 191
141 165 218 240 274 300 129 243 294 197 186 125 101 112 262 306 331 331 2 25 91 126 130 126 156 143 139 153 168 186 198 199 186 182 187 189 194 197 199 187 188 179 178 188
166 201 252 266 299 8 180 231 271 243 240 188 185 211 231 267 315 328 10 36 61 82 108 163 145 134 153 169 193 201 192 192 188 188 193 190 183 183 179 175 167 167 171 172
156 184 243 304 52 165 221 265 246 249 242 225 224 229 218 196 318 10 25 37 64 86 75 50 127 137 157 205 220 192 170 179 187 194 200 188 173 173 170 171 172 177 173 174
188 207 249 290 220 230 208 253 263 251 260 237 216 219 221 242 256 302 333 18 50 107 97 36 144 156 176 233 224 161 156 170 180 192 200 184 174 176 176 174 180 190 184 193
235 261 269 287 293 307 294 278 287 276 266 216 193 195 201 248 251 261 319 336 355 75 85 343 279 196 199 206 166 148 163 179 174 176 183 173 170 177 182 189 190 193 193 197
251 269 316 303 288 295 313 317 319 328 328 238 176 177 187 206 235 237 259 296 319 231 240 260 271 254 228 176 153 157 175 186 177 175 173 158 147 169 195 206 200 196 200 195
231 231 218 260 274 278 287 293 292 303 330 335 200 205 194 210 225 233 238 216 218 304 289 291 282 268 248 183 165 163 176 186 184 180 174 170 157 95 43 164 176 186 188 183
236 238 232 254 274 275 270 275 265 241 236 264 273 246 219 238 254 264 261 221 215 237 265 284 289 283 270 192 168 170 190 201 196 186 186 187 187 184 188 36 68 95 151 169
233 234 260 262 266 282 279 277 263 254 253 240 236 216 199 232 246 234 244 247 257 271 267 254 261 277 277 201 169 182 194 199 197 199 196 197 200 199 194 188 181 1 12 171
252 236 238 259 287 298 301 289 299 303 283 279 231 196 196 200 218 246 256 251 267 281 280 280 277 280 276 196 181 201 204 200 195 189 188 192 188 185 188 188 188 196 226 349
263 263 252 256 267 277 285 282 262 280 277 268 264 249 218 185 161 161 309 156 181 271 293 296 283 287 291 199 173 194 198 183 188 172 171 180 183 184 190 193 196 199 211 212
242 250 239 241 250 255 259 251 241 248 258 258 257 245 163 122 101 79 8 13 28 311 292 273 274 289 283 206 174 176 179 177 173 173 188 189 191 194 197 200 207 212 220 213
229 232 227 222 224 229 243 242 233 231 240 255 266 192 156 144 146 198 353 37 39 8 341 320 308 321 326 337 151 161 167 175 175 173 175 172 184 196 199 199 205 215 220 203
254 239 236 225 219 208 211 218 237 248 250 244 202 174 181 175 157 99 51 54 52 356 325 331 348 359 354 13 102 132 143 143 144 141 147 149 155 166 171 176 182 201 192 181
329 325 200 181 156 149 156 162 159 274 247 131 117 113 113 63 98 89 65 43 333 293 314 342 358 16 17 28 72 93 110 125 132 125 120 123 129 128 130 144 154 156 156 164
41 71 103 119 109 103 126 138 138 136 96 110 123 139 134 87 90 100 92 19 329 344 22 30 27 20 21 42 66 81 97 112 119 119 113 104 98 96 100 105 115 122 127 129
55 84 95 97 90 75 73 102 117 116 98 88 88 94 93 82 75 67 63 72 340 27 48 42 36 38 46 57 66 78 86 94 95 102 106 108 112 111 103 102 102 104 112 115
69 88 95 94 95 85 65 69 85 97 101 102 98 96 95 90 87 95 60 5 36 57 58 49 52 55 59 64 67 71 73 77 85 95 104 112 118 117 113 106 99 99 102 103
67 82 86 84 85 82 74 63 71 78 81 82 88 96 100 91 64 54 82 64 59 65 64 55 58 61 65 62 61 62 62 66 73 77 80 81 88 98 105 104 95 94 95 91
77 81 82 85 85 89 97 88 73 68 72 69 65 68 79 93 100 83 77 68 63 66 61 51 53 57 60 58 58 60 61 66 75 81 80 79 77 82 90 92 92 89 83 81
87 90 93 100 106 105 103 97 91 87 89 82 65 60 70 75 82 75 66 61 58 60 55 46 48 54 58 58 55 55 57 60 66 69 72 74 71 71 68 65 67 75 72 62
68 77 81 73 68 86 98 99 98 92 93 98 87 70 72 75 75 70 66 64 61 58 56 51 49 52 56 58 57 55 58 61 62 63 62 63 63 61 61 67 69 68 67 63
Height
1480 1476 1476 1477 1477 1478 1481 1484 1490 1483 1481 1474 1470 1469 1467 1466 1467 1468 1470 1472 1474 1476 1479 1481 1483 1486 1489 1491 1494 1497 1499 1501 1503 1506 1508 1509 1511 1512 1514 1514 1515 1517 1517 1517
1480 1476 1476 1477 1474 1474 1474 1475 1477 1476 1476 1469 1467 1467 1466 1466 1467 1468 1469 1471 1473 1475 1477 1479 1481 1484 1486 1489 1492 1494 1496 1499 1501 1503 1505 1506 1507 1508 1510 1511 1512 1513 1514 1514
1489 1481 1477 1484 1474 1473 1474 1472 1473 1476 1473 1468 1468 1467 1467 1467 1467 1468 1469 1471 1472 1474 1476 1478 1479 1481 1483 1486 1489 1491 1494 1496 1498 1499 1501 1503 1504 1505 1505 1507 1509 1510 1511 1511
1493 1486 1494 1479 1467 1467 1471 1471 1470 1469 1468 1467 1467 1467 1467 1468 1468 1468 1469 1471 1472 1473 1475 1476 1478 1480 1482 1484 1486 1489 1491 1493 1494 1496 1498 1500 1501 1502 1503 1504 1505 1506 1507 1508
1497 1495 1488 1474 1468 1468 1471 1473 1469 1469 1467 1466 1466 1466 1468 1468 1469 1469 1469 1470 1471 1472 1474 1475 1476 1478 1479 1481 1483 1486 1487 1489 1491 1493 1495 1496 1497 1499 1500 1500 1501 1502 1503 1504
1494 1492 1493 1475 1465 1465 1469 1475 1468 1467 1467 1466 1466 1472 1470 1468 1468 1468 1469 1470 1470 1471 1472 1474 1475 1476 1477 1479 1480 1482 1484 1487 1488 1490 1491 1492 1493 1495 1496 1497 1497 1498 1499 1500
1491 1490 1482 1468 1464 1464 1477 1473 1467 1466 1465 1465 1466 1467 1467 1466 1467 1467 1468 1469 1469 1470 1471 1472 1473 1474 1475 1476 1477 1479 1481 1483 1485 1486 1487 1488 1490 1491 1492 1493 1493 1494 1495 1496
1489 1489 1483 1466 1465 1469 1469 1465 1464 1464 1464 1464 1463 1464 1464 1465 1466 1466 1466 1467 1468 1468 1469 1470 1471 1472 1473 1474 1475 1476 1477 1479 1480 1482 1484 1484 1485 1487 1488 1489 1489 1490 1490 1491
1478 1477 1469 1466 1465 1465 1464 1464 1462 1462 1461 1461 1461 1462 1463 1464 1464 1465 1465 1466 1466 1467 1468 1469 1470 1470 1470 1472 1473 1473 1474 1475 1476 1478 1479 1480 1481 1483 1484 1484 1485 1485 1486 1487
1473 1469 1466 1465 1464 1464 1464 1463 1462 1460 1459 1459 1459 1460 1461 1462 1462 1463 1464 1464 1465 1465 1465 1466 1467 1468 1468 1469 1470 1470 1471 1472 1473 1475 1476 1477 1477 1479 1479 1480 1480 1481 1482 1482
1471 1467 1465 1464 1463 1462 1462 1461 1460 1459 1459 1458 1457 1458 1459 1460 1461 1462 1462 1463 1463 1464 1464 1464 1465 1465 1466 1467 1468 1468 1468 1469 1470 1471 1472 1473 1474 1475 1476 1477 1477 1478 1478 1479
1468 1464 1464 1463 1461 1461 1460 1459 1458 1458 1457 1457 1457 1457 1457 1458 1459 1460 1460 1461 1461 1462 1462 1462 1463 1463 1464 1464 1465 1465 1466 1466 1467 1468 1469 1470 1470 1471 1472 1473 1474 1474 1474 1475
1460 1460 1461 1460 1459 1459 1458 1457 1457 1456 1456 1456 1456 1456 1456 1456 1457 1458 1458 1459 1459 1459 1460 1460 1460 1460 1460 1461 1462 1463 1463 1464 1464 1465 1466 1467 1467 1468 1468 1469 1470 1471 1471 1471
1457 1458 1457 1456 1456 1456 1455 1454 1454 1454 1454 1454 1454 1454 1454 1455 1455 1456 1457 1457 1457 1457 1457 1458 1458 1457 1457 1458 1459 1460 1461 1461 1462 1462 1463 1464 1465 1465 1466 1466 1466 1466 1467 1468
1454 1454 1454 1453 1453 1452 1452 1452 1451 1451 1452 1452 1452 1452 1452 1452 1452 1454 1454 1454 1455 1455 1455 1455 1455 1455 1456 1456 1456 1457 1457 1458 1459 1459 1460 1461 1462 1462 1463 1463 1463 1464 1464 1464
1449 1449 1449 1449 1449 1449 1449 1449 1449 1450 1450 1450 1450 1450 1450 1450 1451 1451 1452 1452 1453 1452 1453 1453 1453 1453 1453 1453 1454 1454 1454 1455 1456 1456 1457 1458 1458 1459 1459 1460 1460 1460 1460 1461
1445 1444 1445 1446 1446 1446 1446 1447 1447 1448 1448 1448 1448 1448 1448 1448 1449 1449 1450 1450 1451 1451 1452 1452 1451 1452 1451 1451 1451 1451 1452 1452 1453 1453 1454 1454 1455 1456 1456 1456 1457 1457 1457 1458
1440 1440 1440 1441 1441 1442 1443 1444 1445 1446 1446 1446 1446 1446 1447 1447 1447 1447 1448 1448 1448 1449 1450 1450 1450 1450 1449 1449 1449 1449 1449 1449 1450 1450 1450 1451 1452 1453 1453 1453 1454 1454 1455 1455
1436 1436 1436 1437 1438 1439 1440 1441 1442 1443 1444 1444 1444 1444 1445 1445 1446 1446 1447 1447 1447 1448 1448 1448 1448 1448 1448 1447 1447 1447 1447 1447 1448 1448 1448 1449 1449 1449 1450 1450 1451 1451 1452 1452
1434 1434 1434 1434 1436 1437 1439 1440 1441 1442 1442 1442 1443 1443 1443 1444 1444 1445 1446 1447 1447 1448 1448 1448 1447 1447 1446 1446 1446 1445 1445 1445 1446 1446 1446 1446 1446 1447 1447 1448 1449 1449 1450 1450
1434 1434 1433 1434 1436 1437 1438 1439 1440 1440 1441 1441 1442 1442 1443 1443 1444 1444 1445 1446 1447 1447 1447 1447 1447 1446 1445 1445 1445 1445 1444 1444 1444 1444 1444 1445 1445 1446 1446 1446 1447 1448 1448 1448
1435 1435 1435 1435 1436 1437 1438 1439 1439 1440 1441 1442 1442 1443 1443 1443 1444 1444 1445 1446 1447 1447 1447 1446 1446 1446 1445 1444 1444 1444 1444 1444 1443 1443 1443 1444 1444 1444 1445 1445 1446 1446 1447 1447
1437 1437 1437 1437 1438 1438 1439 1439 1439 1440 1441 1442 1443 1444 1444 1444 1445 1445 1446 1447 1447 1447 1447 1446 1446 1446 1446 1445 1445 1444 1444 1443 1443 1443 1443 1444 1444 1444 1444 1445 1445 1445 1445 1446
1439 1439 1439 1440 1440 1440 1440 1441 1441 1442 1443 1443 1444 1445 1446 1446 1446 1447 1447 1448 1448 1448 1447 1447 1447 1446 1446 1446 1445 1445 1444 1444 1444 1443 1444 1444 1443 1443 1444 1444 1444 1444 1444 1445
1441 1441 1441 1441 1441 1442 1442 1443 1443 1444 1444 1445 1446 1447 1447 1447 1448 1448 1448 1448 1448 1448 1448 1448 1448 1447 1447 1447 1446 1446 1445 1445 1444 1444 1444 1444 1443 1443 1443 1443 1443 1444 1444 1444
1442 1443 1443 1443 1444 1444 1444 1444 1444 1445 1446 1447 1447 1448 1448 1449 1449 1449 1449 1449 1449 1449 1449 1449 1449 1449 1448 1448 1447 1447 1447 1446 1446 1445 1445 1444 1444 1444 1444 1444 1444 1444 1444 1443
1444 1444 1444 1445 1445 1445 1445 1446 1446 1447 1448 1448 1449 1450 1450 1451 1451 1451 1451 1451 1451 1451 1451 1451 1451 1450 1450 1449 1449 1448 1448 1448 1447 1446 1446 1445 1445 1445 1445 1445 1444 1444 1444 1443